This demonstration page uses our WeatherBlox Daily Observations layout. Learn more.

38.89511, -77.03637

Hourly Observations for August 3, 2015

Temp ( °F °C ) Dew Point ( °F °C ) Humidity (%) Winds ( mph kmh ) Pressure ( in mb ) Visibility ( mi km ) Precip ( " mm )
12:52 am 00:52 Clear 75 24 66 19 74 74 SSW 7 11 29.91 1013 10 16.09344 0 0
1:52 am 01:52 Clear 73 23 66 19 78 78 SW 3 6 29.88 1012 10 16.09344 0 0
2:52 am 02:52 Partly Cloudy 73 23 66 19 78 78 SSW 6 9 29.88 1012 10 16.09344 0 0
3:52 am 03:52 Partly Cloudy 73 23 64 18 74 74 SW 5 7 29.88 1012 10 16.09344 0 0
4:52 am 04:52 Partly Cloudy 73 23 63 17 69 69 S 5 7 29.88 1012 10 16.09344 0 0
5:52 am 05:52 Mostly Clear 72 22 63 17 73 73 SSW 7 11 29.88 1012 10 16.09344 0 0
6:52 am 06:52 Mostly Sunny 73 23 66 19 78 78 S 8 13 29.88 1012 10 16.09344 0 0
7:52 am 07:52 Mostly Sunny 75 24 63 17 65 65 SSW 7 11 29.88 1012 10 16.09344 0 0
8:52 am 08:52 Partly Cloudy 81 27 63 17 54 54 SSW 8 13 29.91 1013 10 16.09344 0 0
9:52 am 09:52 Partly Cloudy 82 28 64 18 55 55 S 9 15 29.88 1012 10 16.09344 0 0
10:52 am 10:52 Mostly Sunny 84 29 66 19 55 55 S 10 17 29.88 1012 10 16.09344 0 0
11:52 am 11:52 Partly Cloudy 88 31 66 19 49 49 S 14 22 29.88 1012 10 16.09344 0 0
12:52 pm 12:52 Partly Cloudy 88 31 68 20 52 52 S 16 26 29.85 1011 10 16.09344 0 0
1:52 pm 13:52 Mostly Cloudy 90 32 66 19 46 46 S 14 22 29.83 1010 10 16.09344 0 0
2:52 pm 14:52 Mostly Cloudy 91 33 61 16 36 36 S 13 20 29.83 1010 10 16.09344 0 0
3:52 pm 15:52 Mostly Cloudy 91 33 63 17 38 38 SSW 12 19 29.83 1010 10 16.09344 0 0
4:52 pm 16:52 Mostly Cloudy 91 33 66 19 44 44 S 14 22 29.83 1010 10 16.09344 0 0
5:52 pm 17:52 Mostly Cloudy 91 33 66 19 44 44 S 13 20 29.83 1010 10 16.09344 0 0
6:52 pm 18:52 Partly Cloudy 90 32 66 19 46 46 S 13 20 29.8 1009 10 16.09344 0 0
7:52 pm 19:52 Mostly Cloudy 90 32 66 19 46 46 S 12 19 29.83 1010 10 16.09344 0 0
8:52 pm 20:52 Mostly Cloudy 86 30 70 21 59 59 S 8 13 29.83 1010 10 16.09344 0 0
9:52 pm 21:52 Partly Cloudy 84 29 70 21 62 62 S 10 17 29.83 1010 10 16.09344 0 0
10:52 pm 22:52 Partly Cloudy 84 29 70 21 62 62 S 10 17 29.83 1010 10 16.09344 0 0
11:52 pm 23:52 Mostly Cloudy 82 28 68 20 62 62 SSW 8 13 29.83 1010 10 16.09344 0 0

Powered by AerisWeather